Retour au catalogue

FENGYUN 1C DEB

ActifSSO
NORAD 31758·DEBRIS·🇨🇳 China

Lancé May 10, 1999 depuis Taiyuan Satellite Launch Center

Loading…

Prochains Passages (prochaines 24 heures)

TLE

FraisSource: Space-Track

Époque: Sep 12, 2026, 23:03 UTC

1 31758U 99025CFH 26255.96064709  .00011068  00000-0  16900-2 0  9994
2 31758  98.0594 256.9508 0292686 329.7282  28.7279 14.49035451981630

Suivez FENGYUN 1C DEB en temps réel avec AllMySat

Download on the App Store